NKS69 KDTW-KACY

Flight info

Callsign NKS69
Flight time 1h 4m
Altitude 37000
Route PAVYL3 ESSBE CXR REC HAR MXE VCN ACY
Aircraft A320/M-SDE3FGHIRWY/LB1

Departure

Time 2026-05-06 05:55
Airport Detroit Metropolitan Wayne County Airport (KDTW)

Arrival

Time 2026-05-06 07:00
Airport Atlantic City International Airport (KACY)
Time Latitude Longitude Altitude Speed Heading
2026-05-06 05:29 42.22756 -83.34790 648 ft 0 kts 120°
2026-05-06 05:48 42.22759 -83.34795 647 ft 1 kts 120°
2026-05-06 05:48 42.22765 -83.34812 649 ft 2 kts 108°
2026-05-06 05:48 42.22769 -83.34834 648 ft 2 kts 81°
2026-05-06 05:48 42.22764 -83.34855 648 ft 2 kts 47°
2026-05-06 05:49 42.22756 -83.34865 649 ft 0 kts 26°
2026-05-06 05:52 42.22774 -83.34855 647 ft 8 kts 20°
2026-05-06 05:52 42.22855 -83.34811 649 ft 15 kts 25°
2026-05-06 05:53 42.22962 -83.34783 647 ft 17 kts 348°
2026-05-06 05:53 42.23051 -83.34870 649 ft 15 kts 299°
2026-05-06 05:53 42.23090 -83.34970 646 ft 13 kts 288°
2026-05-06 05:53 42.23048 -83.35055 646 ft 0 kts 208°
2026-05-06 05:54 42.23044 -83.35058 646 ft 1 kts 207°
2026-05-06 05:54 42.23038 -83.35062 647 ft 1 kts 207°
2026-05-06 05:54 42.23026 -83.35071 646 ft 3 kts 207°
2026-05-06 05:54 42.22904 -83.35161 645 ft 52 kts 208°
2026-05-06 05:55 42.22397 -83.35535 648 ft 111 kts 208°
2026-05-06 05:55 42.21585 -83.36132 648 ft 153 kts 208°
2026-05-06 05:55 42.20593 -83.36859 1063 ft 160 kts 208°
2026-05-06 05:55 42.19616 -83.37573 1716 ft 162 kts 212°
2026-05-06 05:56 42.18596 -83.38262 2214 ft 171 kts 200°
2026-05-06 05:56 42.17373 -83.38292 2587 ft 187 kts 169°
2026-05-06 05:56 42.16034 -83.37972 2925 ft 202 kts 170°
2026-05-06 05:56 42.14601 -83.37648 3252 ft 216 kts 171°
2026-05-06 05:57 42.13088 -83.37330 3663 ft 227 kts 172°
2026-05-06 05:57 42.11469 -83.37002 4003 ft 248 kts 172°
2026-05-06 05:57 42.09682 -83.36648 4474 ft 269 kts 173°
2026-05-06 05:57 42.07811 -83.36281 5335 ft 274 kts 173°
2026-05-06 05:58 42.05965 -83.35562 6237 ft 281 kts 156°
2026-05-06 05:58 42.04362 -83.34005 7073 ft 290 kts 135°
2026-05-06 05:58 42.03248 -83.31714 7919 ft 298 kts 114°
2026-05-06 05:58 42.02736 -83.28982 8733 ft 304 kts 103°
2026-05-06 05:59 42.02340 -83.26176 9546 ft 309 kts 104°
2026-05-06 05:59 42.01938 -83.23313 10249 ft 316 kts 104°
2026-05-06 05:59 42.01571 -83.20276 10504 ft 341 kts 98°
2026-05-06 05:59 42.01583 -83.16986 10793 ft 362 kts 86°
2026-05-06 06:00 42.02011 -83.13603 11370 ft 371 kts 81°
2026-05-06 06:00 42.02514 -83.10172 12012 ft 377 kts 78°
2026-05-06 06:00 42.03301 -83.06791 12651 ft 383 kts 72°
2026-05-06 06:00 42.04169 -83.03364 13304 ft 388 kts 72°
2026-05-06 06:01 42.05029 -82.99958 13909 ft 393 kts 72°
2026-05-06 06:01 42.05923 -82.96403 14476 ft 398 kts 72°
2026-05-06 06:01 42.06800 -82.92917 15023 ft 402 kts 72°
2026-05-06 06:01 42.07704 -82.89334 15569 ft 406 kts 71°
2026-05-06 06:02 42.08619 -82.85711 16119 ft 411 kts 71°
2026-05-06 06:02 42.09546 -82.82036 16670 ft 416 kts 71°
2026-05-06 06:02 42.10481 -82.78332 17226 ft 420 kts 71°
2026-05-06 06:02 42.11423 -82.74587 17776 ft 425 kts 71°
2026-05-06 06:03 42.12371 -82.70797 18308 ft 429 kts 71°
2026-05-06 06:03 42.13324 -82.66979 18779 ft 434 kts 71°
2026-05-06 06:03 42.14090 -82.63032 19231 ft 438 kts 81°
2026-05-06 06:03 42.14374 -82.58938 19718 ft 440 kts 92°
2026-05-06 06:04 42.14346 -82.54787 20207 ft 444 kts 94°
2026-05-06 06:04 42.14314 -82.50611 20681 ft 448 kts 94°
2026-05-06 06:04 42.14277 -82.46398 21132 ft 451 kts 96°
2026-05-06 06:04 42.13944 -82.42206 21577 ft 450 kts 104°
2026-05-06 06:05 42.13430 -82.38048 22037 ft 453 kts 104°
2026-05-06 06:05 42.12907 -82.33834 22501 ft 457 kts 105°
2026-05-06 06:05 42.12378 -82.29607 22948 ft 460 kts 105°
2026-05-06 06:05 42.11838 -82.25327 23394 ft 464 kts 105°
2026-05-06 06:06 42.11296 -82.21043 23773 ft 467 kts 105°
2026-05-06 06:06 42.10748 -82.16719 24153 ft 470 kts 105°
2026-05-06 06:06 42.10193 -82.12346 24540 ft 473 kts 105°
2026-05-06 06:06 42.09636 -82.07970 24909 ft 475 kts 105°
2026-05-06 06:07 42.09075 -82.03571 25286 ft 478 kts 105°
2026-05-06 06:07 42.08510 -81.99146 25660 ft 481 kts 105°
2026-05-06 06:07 42.07940 -81.94694 26030 ft 484 kts 105°
2026-05-06 06:07 42.07365 -81.90243 26391 ft 486 kts 105°
2026-05-06 06:08 42.06608 -81.85825 26741 ft 482 kts 114°
2026-05-06 06:08 42.05393 -81.81633 27090 ft 476 kts 124°
2026-05-06 06:08 42.03768 -81.77799 27434 ft 469 kts 133°
2026-05-06 06:08 42.01787 -81.74367 27769 ft 461 kts 142°
2026-05-06 06:09 41.99512 -81.71384 28123 ft 454 kts 149°
2026-05-06 06:09 41.97117 -81.68607 28473 ft 456 kts 149°
2026-05-06 06:09 41.94704 -81.65812 28836 ft 459 kts 149°
2026-05-06 06:09 41.92281 -81.63008 29195 ft 462 kts 149°
2026-05-06 06:10 41.89869 -81.60217 29530 ft 465 kts 149°
2026-05-06 06:10 41.87417 -81.57379 29876 ft 467 kts 150°
2026-05-06 06:10 41.84945 -81.54522 30160 ft 470 kts 150°
2026-05-06 06:10 41.82459 -81.51655 30408 ft 473 kts 150°
2026-05-06 06:11 41.79953 -81.48764 30657 ft 477 kts 149°
2026-05-06 06:11 41.77429 -81.45855 30897 ft 481 kts 149°
2026-05-06 06:11 41.74886 -81.42921 31191 ft 483 kts 149°
2026-05-06 06:11 41.72337 -81.39979 31523 ft 484 kts 149°
2026-05-06 06:12 41.69777 -81.37032 31839 ft 486 kts 149°
2026-05-06 06:12 41.67202 -81.34077 32152 ft 488 kts 149°
2026-05-06 06:12 41.64618 -81.31113 32458 ft 491 kts 149°
2026-05-06 06:12 41.62022 -81.28137 32782 ft 493 kts 149°
2026-05-06 06:13 41.59412 -81.25146 33105 ft 495 kts 149°
2026-05-06 06:13 41.56795 -81.22149 33427 ft 497 kts 149°
2026-05-06 06:13 41.54187 -81.19067 33736 ft 505 kts 144°
2026-05-06 06:13 41.51827 -81.15524 34016 ft 518 kts 135°
2026-05-06 06:14 41.49822 -81.11471 34290 ft 529 kts 125°
2026-05-06 06:14 41.48129 -81.07089 34557 ft 533 kts 123°
2026-05-06 06:14 41.46442 -81.02680 34848 ft 534 kts 123°
2026-05-06 06:14 41.44741 -80.98277 35116 ft 535 kts 123°
2026-05-06 06:15 41.43028 -80.93873 35390 ft 536 kts 123°
2026-05-06 06:15 41.41306 -80.89468 35654 ft 536 kts 123°
2026-05-06 06:15 41.39581 -80.85065 35923 ft 537 kts 123°
2026-05-06 06:15 41.37852 -80.80648 36191 ft 538 kts 123°
2026-05-06 06:16 41.36123 -80.76224 36443 ft 539 kts 123°
2026-05-06 06:16 41.34396 -80.71798 36697 ft 540 kts 123°
2026-05-06 06:16 41.32657 -80.67351 36830 ft 542 kts 123°
2026-05-06 06:16 41.30914 -80.62900 36852 ft 542 kts 123°
2026-05-06 06:17 41.27443 -80.54069 36849 ft 542 kts 123°
2026-05-06 06:17 41.23935 -80.45189 36848 ft 543 kts 123°
2026-05-06 06:18 41.20423 -80.36307 36846 ft 543 kts 123°
2026-05-06 06:18 41.16904 -80.27434 36846 ft 543 kts 123°
2026-05-06 06:19 41.13377 -80.18576 36842 ft 543 kts 123°
2026-05-06 06:19 41.09845 -80.09718 36836 ft 543 kts 123°
2026-05-06 06:20 41.06307 -80.00867 36830 ft 543 kts 123°
2026-05-06 06:20 41.02763 -79.92024 36833 ft 543 kts 123°
2026-05-06 06:21 40.99207 -79.83182 36838 ft 544 kts 123°
2026-05-06 06:21 40.95634 -79.74354 36831 ft 543 kts 123°
2026-05-06 06:22 40.92066 -79.65557 36827 ft 543 kts 123°
2026-05-06 06:22 40.88514 -79.56815 36824 ft 543 kts 122°
2026-05-06 06:23 40.84932 -79.48026 36818 ft 543 kts 123°
2026-05-06 06:23 40.81346 -79.39248 36829 ft 543 kts 122°
2026-05-06 06:24 40.77762 -79.30480 36848 ft 542 kts 122°
2026-05-06 06:24 40.74162 -79.21729 36861 ft 542 kts 122°
2026-05-06 06:25 40.70559 -79.13000 36879 ft 541 kts 122°
2026-05-06 06:26 40.65156 -78.99944 36891 ft 541 kts 122°
2026-05-06 06:26 40.61548 -78.91259 36881 ft 540 kts 122°
2026-05-06 06:27 40.57936 -78.82596 36867 ft 540 kts 122°
2026-05-06 06:27 40.55192 -78.75222 36866 ft 543 kts 112°
2026-05-06 06:28 40.53379 -78.65592 36863 ft 543 kts 99°
2026-05-06 06:28 40.52048 -78.55822 36858 ft 543 kts 100°
2026-05-06 06:29 40.50679 -78.46062 36856 ft 543 kts 100°
2026-05-06 06:29 40.49290 -78.36335 36862 ft 542 kts 100°
2026-05-06 06:30 40.47906 -78.26603 36861 ft 542 kts 100°
2026-05-06 06:30 40.46527 -78.16944 36862 ft 541 kts 100°
2026-05-06 06:31 40.45134 -78.07220 36862 ft 541 kts 100°
2026-05-06 06:31 40.43737 -77.97522 36853 ft 540 kts 100°
2026-05-06 06:32 40.42335 -77.87837 36861 ft 540 kts 100°
2026-05-06 06:32 40.40914 -77.78182 36855 ft 539 kts 101°
2026-05-06 06:33 40.39488 -77.68531 36858 ft 538 kts 100°
2026-05-06 06:33 40.38062 -77.58878 36852 ft 538 kts 101°
2026-05-06 06:34 40.36623 -77.49242 36854 ft 538 kts 100°
2026-05-06 06:34 40.35184 -77.39624 36855 ft 538 kts 100°
2026-05-06 06:35 40.33739 -77.29993 36857 ft 538 kts 100°
2026-05-06 06:35 40.32281 -77.20395 36860 ft 537 kts 101°
2026-05-06 06:36 40.30809 -77.10794 36869 ft 537 kts 101°
2026-05-06 06:36 40.28764 -77.01476 36871 ft 536 kts 110°
2026-05-06 06:37 40.26293 -76.92297 36875 ft 535 kts 110°
2026-05-06 06:37 40.23819 -76.83108 36572 ft 534 kts 110°
2026-05-06 06:37 40.22580 -76.78514 35843 ft 538 kts 110°
2026-05-06 06:38 40.21325 -76.73868 34958 ft 544 kts 110°
2026-05-06 06:38 40.20057 -76.69173 34156 ft 549 kts 110°
2026-05-06 06:38 40.18790 -76.64488 33637 ft 544 kts 110°
2026-05-06 06:38 40.17525 -76.59831 33084 ft 539 kts 111°
2026-05-06 06:39 40.16279 -76.55265 32654 ft 532 kts 111°
2026-05-06 06:39 40.15040 -76.50733 32181 ft 526 kts 111°
2026-05-06 06:39 40.13815 -76.46253 31728 ft 518 kts 111°
2026-05-06 06:39 40.12609 -76.41846 31096 ft 510 kts 112°
2026-05-06 06:40 40.11425 -76.37531 30489 ft 501 kts 112°
2026-05-06 06:40 40.10258 -76.33282 29891 ft 492 kts 113°
2026-05-06 06:40 40.09108 -76.29108 29169 ft 485 kts 113°
2026-05-06 06:40 40.07969 -76.24987 28405 ft 479 kts 113°
2026-05-06 06:41 40.06844 -76.20927 27698 ft 472 kts 113°
2026-05-06 06:41 40.05737 -76.16929 27078 ft 464 kts 113°
2026-05-06 06:41 40.04657 -76.13019 26606 ft 453 kts 113°
2026-05-06 06:41 40.03599 -76.09181 26106 ft 445 kts 113°
2026-05-06 06:42 40.02560 -76.05424 25668 ft 437 kts 113°
2026-05-06 06:42 40.01531 -76.01727 25210 ft 430 kts 114°
2026-05-06 06:42 40.00531 -75.98142 24756 ft 423 kts 114°
2026-05-06 06:42 39.99530 -75.94561 24295 ft 417 kts 114°
2026-05-06 06:43 39.98543 -75.91033 23834 ft 411 kts 114°
2026-05-06 06:43 39.97574 -75.87566 23350 ft 406 kts 114°
2026-05-06 06:43 39.96614 -75.84128 22852 ft 399 kts 114°
2026-05-06 06:43 39.95669 -75.80755 22385 ft 392 kts 114°
2026-05-06 06:44 39.94733 -75.77445 21920 ft 386 kts 114°
2026-05-06 06:44 39.93809 -75.74186 21456 ft 381 kts 115°
2026-05-06 06:44 39.92901 -75.70974 21018 ft 375 kts 115°
2026-05-06 06:44 39.91957 -75.67844 20598 ft 366 kts 121°
2026-05-06 06:45 39.90702 -75.65006 20188 ft 358 kts 131°
2026-05-06 06:45 39.89277 -75.62368 19777 ft 355 kts 131°
2026-05-06 06:45 39.87871 -75.59752 19373 ft 353 kts 131°
2026-05-06 06:45 39.86460 -75.57120 18951 ft 354 kts 131°
2026-05-06 06:46 39.85049 -75.54489 18530 ft 355 kts 131°
2026-05-06 06:46 39.83637 -75.51857 18090 ft 355 kts 131°
2026-05-06 06:46 39.82224 -75.49225 17640 ft 355 kts 131°
2026-05-06 06:46 39.80816 -75.46598 17219 ft 353 kts 131°
2026-05-06 06:47 39.79414 -75.43982 16788 ft 352 kts 131°
2026-05-06 06:47 39.78013 -75.41376 16366 ft 350 kts 131°
2026-05-06 06:47 39.76636 -75.38821 15952 ft 349 kts 131°
2026-05-06 06:47 39.75252 -75.36256 15620 ft 345 kts 131°
2026-05-06 06:48 39.73876 -75.33712 15222 ft 343 kts 131°
2026-05-06 06:48 39.72506 -75.31182 14813 ft 343 kts 131°
2026-05-06 06:48 39.71135 -75.28653 14381 ft 342 kts 131°
2026-05-06 06:48 39.69766 -75.26127 13976 ft 341 kts 131°
2026-05-06 06:49 39.68400 -75.23608 13541 ft 340 kts 131°
2026-05-06 06:49 39.67044 -75.21105 13121 ft 338 kts 131°
2026-05-06 06:49 39.65696 -75.18621 12702 ft 335 kts 131°
2026-05-06 06:49 39.64363 -75.16159 12296 ft 332 kts 131°
2026-05-06 06:50 39.63037 -75.13710 11887 ft 330 kts 131°
2026-05-06 06:50 39.61721 -75.11287 11492 ft 328 kts 131°
2026-05-06 06:50 39.60408 -75.08877 11091 ft 326 kts 131°
2026-05-06 06:50 39.59103 -75.06485 10697 ft 324 kts 131°
2026-05-06 06:51 39.57805 -75.04107 10298 ft 322 kts 131°
2026-05-06 06:51 39.56529 -75.01768 10124 ft 312 kts 132°
2026-05-06 06:51 39.55360 -74.99440 10009 ft 307 kts 122°
2026-05-06 06:51 39.54721 -74.96800 9790 ft 311 kts 103°
2026-05-06 06:52 39.54784 -74.93967 9417 ft 321 kts 82°
2026-05-06 06:52 39.55542 -74.91233 9027 ft 324 kts 69°
2026-05-06 06:52 39.56435 -74.88559 8680 ft 323 kts 69°
2026-05-06 06:52 39.57322 -74.85898 8233 ft 321 kts 69°
2026-05-06 06:53 39.58202 -74.83242 7765 ft 319 kts 69°
2026-05-06 06:53 39.59067 -74.80612 7314 ft 317 kts 69°
2026-05-06 06:53 39.59920 -74.77996 6881 ft 314 kts 69°
2026-05-06 06:53 39.60764 -74.75398 6438 ft 312 kts 68°
2026-05-06 06:54 39.61604 -74.72814 5995 ft 309 kts 68°
2026-05-06 06:54 39.62436 -74.70260 5507 ft 307 kts 68°
2026-05-06 06:54 39.63263 -74.67715 4939 ft 306 kts 68°
2026-05-06 06:54 39.63960 -74.65119 4347 ft 303 kts 82°
2026-05-06 06:55 39.64057 -74.62432 3804 ft 295 kts 102°
2026-05-06 06:55 39.63545 -74.59915 3264 ft 284 kts 120°
2026-05-06 06:55 39.62769 -74.57568 2710 ft 283 kts 121°
2026-05-06 06:55 39.62005 -74.55247 2355 ft 273 kts 122°
2026-05-06 06:56 39.61077 -74.53330 2202 ft 236 kts 147°
2026-05-06 06:56 39.59804 -74.52329 2098 ft 197 kts 173°
2026-05-06 06:56 39.58548 -74.52146 2011 ft 170 kts 194°
2026-05-06 06:56 39.57486 -74.52426 1954 ft 144 kts 200°
2026-05-06 06:57 39.56558 -74.52698 1900 ft 133 kts 201°
2026-05-06 06:57 39.55674 -74.52962 1829 ft 129 kts 201°
2026-05-06 06:57 39.54803 -74.53226 1755 ft 128 kts 201°
2026-05-06 06:57 39.53935 -74.53490 1654 ft 129 kts 200°
2026-05-06 06:58 39.53067 -74.53753 1482 ft 128 kts 200°
2026-05-06 06:58 39.52198 -74.54015 1324 ft 128 kts 199°
2026-05-06 06:58 39.51333 -74.54274 1168 ft 127 kts 199°
2026-05-06 06:58 39.50514 -74.54662 1039 ft 126 kts 210°
2026-05-06 06:59 39.49722 -74.55220 832 ft 129 kts 208°
2026-05-06 06:59 39.48926 -74.55789 698 ft 130 kts 207°
2026-05-06 06:59 39.48144 -74.56342 517 ft 127 kts 206°
2026-05-06 06:59 39.47345 -74.56880 317 ft 132 kts 206°
2026-05-06 07:00 39.46544 -74.57439 126 ft 130 kts 206°
2026-05-06 07:00 39.45813 -74.57939 77 ft 90 kts 208°
2026-05-06 07:00 39.45499 -74.58157 69 ft 30 kts 207°
2026-05-06 07:00 39.45340 -74.58266 70 ft 17 kts 207°
2026-05-06 07:01 39.45257 -74.58216 65 ft 14 kts 135°
2026-05-06 07:01 39.45196 -74.58138 71 ft 12 kts 135°
2026-05-06 07:01 39.45128 -74.58052 66 ft 15 kts 135°
2026-05-06 07:01 39.45087 -74.57943 68 ft 14 kts 66°
2026-05-06 07:02 39.45146 -74.57829 66 ft 16 kts 56°
2026-05-06 07:02 39.45176 -74.57708 66 ft 14 kts 123°
2026-05-06 07:02 39.45148 -74.57595 66 ft 16 kts 60°
2026-05-06 07:02 39.45219 -74.57474 74 ft 18 kts 55°
2026-05-06 07:03 39.45239 -74.57329 73 ft 17 kts 96°
2026-05-06 07:03 39.45206 -74.57254 74 ft 1 kts 142°
2026-05-06 07:03 39.45205 -74.57252 66 ft 0 kts 142°
2026-05-06 07:03 39.45205 -74.57253 74 ft 2 kts 142°
2026-05-06 07:04 39.45220 -74.57267 64 ft 3 kts 139°
2026-05-06 07:04 39.45232 -74.57290 74 ft 3 kts 94°
2026-05-06 07:04 39.45233 -74.57302 59 ft 0 kts 75°
2026-05-06 07:04 39.45247 -74.57266 70 ft 9 kts 66°
2026-05-06 07:05 39.45208 -74.57229 72 ft 9 kts 175°
2026-05-06 07:05 39.45200 -74.57228 73 ft 0 kts 175°
2026-05-06 07:09 39.45201 -74.57228 74 ft 0 kts 175°